Location: Las Vegas
(36.1750°N, 115.1360°W)
Time: 08:56:39
(UTC-07:00)

Amateur Radio Satellites - All Passes

Search period start: 29 July 2015 08:26
Search period end: 30 July 2015 08:26
Location: Las Vegas, 36.1750°N, 115.1360°W

Satellite Date Start Highest point End Downlink Frequencies (MHz)
Time Altitude Azimuth
DOVE 4 29 Jul 08:28:41 08:32:38 29° 96° (E) 08:36:50 437.250
AUBIESAT-1 29 Jul 08:29:49 08:32:53 23° 64° (ENE) 08:36:14 437.475
COMPASS 1 29 Jul 08:38:01 08:40:35 16° 92° (E) 08:43:18 437.405
CUTE 1.7 + AOD 2 29 Jul 08:44:06 08:47:55 31° 96° (E) 08:51:46 437.475
SEEDS 29 Jul 08:46:45 08:50:21 26° 95° (E) 08:53:59 437.485
BEESAT 2 29 Jul 08:48:40 08:51:50 22° 50° (NE) 08:55:00 435.950
CANX-2 29 Jul 08:51:45 08:55:52 44° 98° (E) 08:59:58 2200.000
CINEMA 3 29 Jul 09:02:10 09:06:12 29° 96° (E) 09:10:27 145.822/145.860
PCSat 29 Jul 09:04:01 09:08:50 35° 110° (ESE) 09:13:45 145.827
HO-68 29 Jul 09:19:04 09:26:16 75° 104° (ESE) 09:33:28 435.675
AAUSAT CUBESAT 2 29 Jul 09:21:12 09:25:14 44° 98° (E) 09:29:15 437.432
SRMSAT 29 Jul 09:21:38 09:24:48 15° 186° (S) 09:27:56 437.500
UNISAT 6 29 Jul 09:23:16 09:25:31 14° 67° (ENE) 09:27:59 437.425
ZACube-1 29 Jul 09:30:49 09:33:27 16° 91° (E) 09:36:19 437.345
M-CUBED/EXP-1 PRIME 29 Jul 09:30:58 09:34:44 53° 257° (WSW) 09:38:50 437.505
DELFI C3 29 Jul 09:31:26 09:33:46 15° 92° (E) 09:36:15 145.870
BEESAT 3 29 Jul 09:32:43 09:36:46 86° 59° (ENE) 09:40:45 437.485
BRITE-PL 29 Jul 09:35:30 09:38:33 18° 289° (WNW) 09:41:35 437.365/2234.400
Cosmos 2499 29 Jul 09:37:46 09:43:48 26° 291° (WNW) 09:49:56 435.465 / 435.565
SO-50 29 Jul 09:38:54 09:43:26 50° 116° (ESE) 09:48:09 436.795
UWE-3 29 Jul 09:46:12 09:50:16 31° 96° (E) 09:54:26 435.000/436.395/437.385
RS-15 29 Jul 09:46:31 09:54:57 21° 257° (WSW) 10:02:42 29.354- 29.394
FUNcube-1 29 Jul 09:53:03 09:56:54 27° 95° (E) 10:00:48 145.935
CUBEBUG 2 29 Jul 09:54:34 09:59:04 50° 99° (E) 10:03:40 437.445
POLYITAN 1 29 Jul 09:56:47 09:58:26 12° 67° (ENE) 10:00:19 437.675
AIST 2 29 Jul 09:59:28 10:03:02 27° 52° (NE) 10:06:37 435.215
GOMX 1 29 Jul 10:03:03 10:05:58 17° 290° (WNW) 10:08:49 467.674
AUBIESAT-1 29 Jul 10:04:14 10:07:30 25° 261° (W) 10:10:56 437.475
TIGRISAT 29 Jul 10:05:59 10:10:01 41° 73° (ENE) 10:14:09 435.000
ANTELSAT 29 Jul 10:06:17 10:10:22 44° 73° (ENE) 10:14:34 437.575/2403.000
DOVE 4 29 Jul 10:06:34 10:10:18 25° 288° (WNW) 10:14:07 437.250
Oscar 11 29 Jul 10:11:16 10:15:39 76° 101° (ESE) 10:19:59 145.826/435.025
COMPASS 1 29 Jul 10:12:31 10:16:24 35° 287° (WNW) 10:20:13 437.405
POPSAT HIP 1 29 Jul 10:13:49 10:16:45 19° 69° (ENE) 10:19:48 437.405
UKube-1 29 Jul 10:15:33 10:15:54 10° 90° (E) 10:16:34 .
QB50P2 29 Jul 10:20:12 10:23:30 24° 71° (ENE) 10:26:56 145.880/145.840
CUTE 1.7 + AOD 2 29 Jul 10:20:31 10:23:39 19° 290° (WNW) 10:26:38 437.475
SEEDS 29 Jul 10:22:41 10:26:01 22° 290° (WNW) 10:29:15 437.485
BEESAT 2 29 Jul 10:26:21 10:29:55 29° 247° (WSW) 10:33:22 435.950
CANX-2 29 Jul 10:29:02 10:31:26 14° 292° (WNW) 10:33:39 2200.000
BUGSAT 1 29 Jul 10:35:00 10:37:55 20° 70° (ENE) 10:40:56 437.445
DX 1 29 Jul 10:36:04 10:39:21 21° 94° (E) 10:42:44 434.975-435.025
VELOX 1 29 Jul 10:39:25 10:41:20 13° 91° (E) 10:43:29 145.980
CINEMA 3 29 Jul 10:39:28 10:43:18 25° 289° (WNW) 10:47:09 145.822/145.860
HUMSAT D 29 Jul 10:42:59 10:47:03 40° 98° (E) 10:51:08 437.325/437.525
PCSat 29 Jul 10:47:35 10:52:18 29° 306° (NW) 10:56:59 145.827
DUCHIFAT 1 29 Jul 10:47:43 10:51:42 46° 74° (ENE) 10:55:44 145.980
QB50P1 29 Jul 10:48:26 10:52:29 49° 74° (ENE) 10:56:33 145.935-145.965
NANOSAT C BR1 29 Jul 10:50:58 10:55:02 52° 74° (ENE) 10:59:08 145.865
UNISAT 6 29 Jul 10:57:50 11:01:56 44° 262° (W) 11:06:09 437.425
AAUSAT CUBESAT 2 29 Jul 10:58:19 11:00:29 13° 292° (WNW) 11:02:26 437.432
DELFI C3 29 Jul 11:05:17 11:08:59 34° 287° (WNW) 11:12:37 145.870
ZACube-1 29 Jul 11:05:44 11:10:02 43° 286° (WNW) 11:14:20 437.345
HO-68 29 Jul 11:08:24 11:13:21 20° 299° (WNW) 11:18:01 435.675
YUBILEINY 29 Jul 11:11:43 11:19:46 39° 74° (ENE) 11:27:55 435.215
50 SAT 29 Jul 11:19:18 11:23:09 47° 99° (E) 11:27:00 437.505
SO-50 29 Jul 11:20:45 11:24:18 20° 314° (NW) 11:27:50 436.795
UWE-3 29 Jul 11:23:02 11:26:38 22° 290° (WNW) 11:30:10 435.000/436.395/437.385
FUNcube-1 29 Jul 11:29:23 11:33:06 25° 289° (WNW) 11:36:46 145.935
POLYITAN 1 29 Jul 11:29:54 11:33:57 48° 261° (W) 11:38:02 437.675
CUBEBUG 2 29 Jul 11:32:44 11:35:24 15° 292° (WNW) 11:37:53 437.445
AISAT 29 Jul 11:33:47 11:38:10 60° 101° (E) 11:42:32 437.250
AIST 1 29 Jul 11:38:04 11:41:17 21° 90° (E) 11:44:38
AIST 2 29 Jul 11:38:08 11:41:30 23° 248° (WSW) 11:44:45 435.215
O/OREOS (USA 219) 29 Jul 11:40:57 11:45:10 36° 64° (ENE) 11:49:25 437.305
Cosmos 2491 29 Jul 11:41:27 11:48:49 33° 87° (E) 11:56:24 435.465 / 435.565
TIGRISAT 29 Jul 11:44:39 11:47:02 14° 269° (W) 11:49:15 435.000
ANTELSAT 29 Jul 11:45:13 11:47:28 13° 270° (W) 11:49:31 437.575/2403.000
UKube-1 29 Jul 11:48:14 11:52:28 57° 285° (WNW) 11:56:42 .
POPSAT HIP 1 29 Jul 11:48:43 11:52:26 30° 264° (W) 11:56:07 437.405
QB50P2 29 Jul 11:55:53 11:59:20 24° 265° (W) 12:02:44 145.880/145.840
CUBEBUG 1 29 Jul 11:57:55 12:02:12 62° 101° (E) 12:06:29 437.445
BUGSAT 1 29 Jul 12:09:46 12:13:15 26° 264° (W) 12:16:40 437.445
DX 1 29 Jul 12:11:52 12:15:36 28° 289° (WNW) 12:19:16 434.975-435.025
ESTCUBE 1 29 Jul 12:13:00 12:17:30 73° 284° (WNW) 12:21:56 437.505/2401.250
VELOX 1 29 Jul 12:13:57 12:18:12 47° 287° (WNW) 12:22:25 145.980
HUMSAT D 29 Jul 12:19:48 12:22:29 16° 291° (WNW) 12:25:00 437.325/437.525
Oscar 19 29 Jul 12:24:32 12:28:22 23° 68° (ENE) 12:32:22 437.125/150
DUCHIFAT 1 29 Jul 12:26:07 12:27:49 12° 270° (W) 12:29:17 145.980
QB50P1 29 Jul 12:27:19 12:28:42 11° 270° (W) 12:29:48 145.935-145.965
NANOSAT C BR1 29 Jul 12:30:18 12:31:14 10° 270° (W) 12:31:53 145.865
SPROUT 29 Jul 12:45:56 12:50:12 62° 101° (E) 12:54:27 437.525
50 SAT 29 Jul 12:55:56 12:57:21 11° 292° (WNW) 12:58:33 437.505
Gurwin Techsat 1B 29 Jul 13:00:11 13:02:58 15° 65° (ENE) 13:06:00 435.225
YUBILEINY 29 Jul 13:08:31 13:16:38 41° 271° (W) 13:24:36 435.215
TISAT 1 29 Jul 13:10:02 13:14:14 72° 101° (E) 13:18:27 437.305
AISAT 29 Jul 13:12:47 13:14:17 11° 294° (WNW) 13:15:31 437.250
AIST 1 29 Jul 13:15:06 13:18:50 26° 284° (WNW) 13:22:29
O/OREOS (USA 219) 29 Jul 13:21:07 13:24:21 18° 258° (WSW) 13:27:25 437.305
Cosmos 2491 29 Jul 13:36:59 13:45:26 48° 284° (WNW) 13:53:47 435.465 / 435.565
CUBEBUG 1 29 Jul 13:37:06 13:38:06 10° 294° (WNW) 13:38:49 437.445
ITAMSAT 1 29 Jul 13:38:05 13:42:35 31° 70° (ENE) 13:47:10 435.822/435.867
Cosmos 2504 29 Jul 13:44:35 13:52:31 46° 77° (ENE) 14:00:44 435.465 / 435.565
BEESAT 29 Jul 13:57:43 14:02:04 35° 97° (E) 14:06:26 436.000
Oscar 19 29 Jul 14:02:47 14:07:31 38° 262° (W) 14:12:16 437.125/150
JAS-2 29 Jul 14:13:05 14:17:56 28° 65° (ENE) 14:23:26 435.910
SWISSCUBE 29 Jul 14:17:31 14:22:17 64° 101° (ESE) 14:26:59 437.505
SPROUT 29 Jul 14:25:01 14:25:49 10° 294° (WNW) 14:26:21 437.525
ITUPSAT 1 29 Jul 14:36:58 14:41:48 88° 277° (W) 14:46:34 437.325
Gurwin Techsat 1B 29 Jul 14:37:12 14:42:28 64° 259° (WSW) 14:47:46 435.225
AO-7 29 Jul 15:10:23 15:18:21 53° 67° (ENE) 15:26:26 29.400- 29.500
ITAMSAT 1 29 Jul 15:17:34 15:22:04 28° 264° (W) 15:26:29 435.822/435.867
STARS 29 Jul 15:18:40 15:22:12 24° 95° (E) 15:25:49 437.465
CUSAT 1 29 Jul 15:25:59 15:29:57 54° 81° (E) 15:35:16 437.405
BEESAT 29 Jul 15:36:03 15:39:42 21° 292° (WNW) 15:43:13 436.000
Cosmos 2504 29 Jul 15:37:05 15:44:34 35° 273° (W) 15:52:01 435.465 / 435.565
KKS-1 29 Jul 15:37:25 15:41:52 70° 102° (ESE) 15:46:20 437.445
HORYU 2 29 Jul 15:38:35 15:42:59 66° 75° (ENE) 15:47:25 437.375
GONETS M04 29 Jul 15:54:46 15:59:03 15° 62° (ENE) 16:03:59
JAS-2 29 Jul 15:57:18 16:02:46 41° 264° (W) 16:08:53 435.910
SWISSCUBE 29 Jul 15:57:34 15:59:38 12° 295° (WNW) 16:01:27 437.505
MOZHAYETS 4 29 Jul 16:08:10 16:10:58 16° 91° (E) 16:13:58
DANDE 29 Jul 16:27:41 16:31:15 45° 262° (W) 16:35:56 436.750
STARS 29 Jul 16:54:53 16:58:37 26° 289° (WNW) 17:02:16 437.465
AO-7 29 Jul 17:04:10 17:11:28 32° 264° (W) 17:18:35 29.400- 29.500
Cubesat XI-IV 29 Jul 17:07:12 17:10:57 20° 67° (ENE) 17:14:53 437.490
CUSAT 1 29 Jul 17:11:09 17:12:34 11° 265° (W) 17:13:45 437.405
KKS-1 29 Jul 17:17:32 17:18:00 10° 295° (WNW) 17:18:10 437.445
Cosmos 2499 29 Jul 17:38:03 17:43:13 17° 64° (ENE) 17:48:57 435.465 / 435.565
MOZHAYETS 4 29 Jul 17:44:03 17:48:25 41° 287° (WNW) 17:52:44
GONETS M04 29 Jul 17:48:42 17:57:28 85° 83° (E) 18:06:14
CUBESAT XI-V 29 Jul 17:54:00 17:57:03 18° 92° (E) 18:00:15 437.345
PCSat 29 Jul 17:55:02 17:58:38 18° 48° (NE) 18:02:23 145.827
CUTE-I 29 Jul 18:02:12 18:07:31 67° 75° (ENE) 18:12:52 437.470
SO-50 29 Jul 18:13:19 18:17:21 25° 49° (NE) 18:21:22 436.795
Cubesat XI-IV 29 Jul 18:45:34 18:50:44 47° 261° (W) 18:55:55 437.490
VERMONT LUNAR 29 Jul 18:49:41 18:52:39 36° 151° (SSE) 18:55:38 437.305
STRAND 1 29 Jul 18:52:56 18:56:54 23° 94° (E) 19:00:58 437.568
BRITE-PL 29 Jul 19:05:07 19:09:01 30° 73° (ENE) 19:12:47 437.365/2234.400
Cosmos 2499 29 Jul 19:28:52 19:37:40 90° 217° (SW) 19:46:34 435.465 / 435.565
GOMX 1 29 Jul 19:30:13 19:34:00 31° 73° (ENE) 19:37:43 467.674
CUBESAT XI-V 29 Jul 19:30:24 19:34:40 37° 287° (WNW) 19:38:51 437.345
DOVE 4 29 Jul 19:33:03 19:35:59 19° 70° (ENE) 19:39:00 437.250
CUTE 1.7 + AOD 2 29 Jul 19:35:18 19:37:59 17° 69° (ENE) 19:40:50 437.475
PCSat 29 Jul 19:37:12 19:42:34 63° 246° (WSW) 19:47:53 145.827
SEEDS 29 Jul 19:37:30 19:39:40 14° 68° (ENE) 19:42:03 437.485
CANX-2 29 Jul 19:42:34 19:45:52 23° 71° (ENE) 19:49:18 2200.000
HO-68 29 Jul 19:44:47 19:51:21 43° 68° (ENE) 19:58:01 435.675
CUTE-I 29 Jul 19:45:35 19:48:10 13° 271° (W) 19:50:24 437.470
RS-15 29 Jul 19:46:54 19:51:19 14° 100° (E) 19:56:49 29.354- 29.394
GONETS M04 29 Jul 19:48:11 19:53:22 16° 279° (W) 19:57:58
SO-50 29 Jul 19:53:27 19:58:02 38° 246° (WSW) 20:02:27 436.795
PHONESAT 2.4 29 Jul 19:56:28 19:58:55 18° 146° (SE) 20:01:26 2401.200-2431.200
CINEMA 3 29 Jul 20:02:46 20:05:28 18° 69° (ENE) 20:08:19 145.822/145.860
AAUSAT CUBESAT 2 29 Jul 20:09:50 20:13:01 22° 71° (ENE) 20:16:19 437.432
PRISM 29 Jul 20:11:03 20:15:05 53° 286° (WNW) 20:19:03 437.425
VERMONT LUNAR 29 Jul 20:26:14 20:29:21 51° 346° (NNW) 20:32:28 437.305
STRAND 1 29 Jul 20:31:33 20:36:12 35° 289° (WNW) 20:40:46 437.568
UWE-3 29 Jul 20:42:01 20:44:41 17° 69° (ENE) 20:47:33 435.000/436.395/437.385
BRITE-PL 29 Jul 20:44:12 20:47:37 20° 266° (W) 20:50:46 437.365/2234.400
FUNcube-1 29 Jul 20:47:41 20:49:57 15° 68° (ENE) 20:52:25 145.935
CUBEBUG 2 29 Jul 20:50:54 20:54:26 28° 72° (ENE) 20:58:05 437.445
COMPASS 1 29 Jul 21:00:19 21:04:30 76° 258° (WSW) 21:08:45 437.405
Oscar 11 29 Jul 21:03:23 21:07:25 40° 73° (ENE) 21:11:30 145.826/435.025
GOMX 1 29 Jul 21:09:15 21:12:15 18° 267° (W) 21:15:02 467.674
CUTE 1.7 + AOD 2 29 Jul 21:09:43 21:13:39 35° 263° (W) 21:17:35 437.475
DOVE 4 29 Jul 21:09:58 21:13:38 28° 264° (W) 21:17:12 437.250
SEEDS 29 Jul 21:11:06 21:15:07 42° 262° (W) 21:19:11 437.485
M-CUBED/EXP-1 PRIME 29 Jul 21:15:18 21:18:13 17° 95° (E) 21:21:18 437.505
CANX-2 29 Jul 21:18:06 21:21:42 26° 265° (W) 21:25:15 2200.000
Cosmos 2499 29 Jul 21:24:42 21:29:54 16° 279° (W) 21:34:31 435.465 / 435.565
DX 1 29 Jul 21:30:16 21:32:30 14° 67° (ENE) 21:34:57 434.975-435.025
HO-68 29 Jul 21:32:52 21:39:12 33° 264° (W) 21:45:26 435.675
HUMSAT D 29 Jul 21:32:56 21:35:53 20° 70° (ENE) 21:38:59 437.325/437.525
PHONESAT 2.4 29 Jul 21:33:05 21:36:36 89° 205° (SSW) 21:40:08 2401.200-2431.200
CINEMA 3 29 Jul 21:38:47 21:42:29 31° 264° (W) 21:46:11 145.822/145.860
ISS 29 Jul 21:41:15 21:44:29 82° 138° (SE) 21:47:45 145.825
AAUSAT CUBESAT 2 29 Jul 21:44:57 21:48:31 26° 265° (W) 21:52:01 437.432
AUBIESAT-1 29 Jul 21:46:22 21:50:31 30° 100° (E) 21:54:38 437.475
DELFI C3 29 Jul 21:48:59 21:53:02 85° 256° (WSW) 21:57:08 145.870
RS-15 29 Jul 21:51:19 22:02:08 78° 117° (ESE) 22:13:21 29.354- 29.394
Cosmos 2491 29 Jul 21:57:03 22:00:08 13° 60° (ENE) 22:03:56 435.465 / 435.565
ZACube-1 29 Jul 21:58:49 22:02:58 75° 258° (WSW) 22:07:12 437.345
50 SAT 29 Jul 22:01:23 22:04:02 18° 70° (ENE) 22:06:48 437.505
TIGRISAT 29 Jul 22:02:10 22:03:44 12° 89° (E) 22:05:36 435.000
ANTELSAT 29 Jul 22:02:30 22:04:24 13° 90° (E) 22:06:34 437.575/2403.000
VERMONT LUNAR 29 Jul 22:03:27 22:06:26 35° 3° (N) 22:09:23 437.305
UWE-3 29 Jul 22:17:14 22:21:00 32° 264° (W) 22:24:48 435.000/436.395/437.385
FUNcube-1 29 Jul 22:22:03 22:25:58 39° 262° (W) 22:29:56 145.935
CUBEBUG 2 29 Jul 22:28:07 22:31:11 19° 267° (W) 22:34:11 437.445
AISAT 29 Jul 22:28:59 22:33:03 38° 73° (ENE) 22:37:09 437.250
UKube-1 29 Jul 22:40:00 22:44:19 84° 78° (ENE) 22:48:40 .
Oscar 11 29 Jul 22:41:16 22:43:50 15° 269° (W) 22:46:11 145.826/435.025
NANOSAT C BR1 29 Jul 22:41:19 22:41:51 10° 89° (E) 22:42:40 145.865
M-CUBED/EXP-1 PRIME 29 Jul 22:48:36 22:53:16 48° 291° (WNW) 22:57:46 437.505
CUBEBUG 1 29 Jul 22:51:29 22:55:28 36° 73° (ENE) 22:59:29 437.445
UNISAT 6 29 Jul 22:51:55 22:56:25 45° 98° (E) 23:00:57 437.425
DX 1 29 Jul 23:04:14 23:08:25 45° 261° (W) 23:12:35 434.975-435.025
HUMSAT D 29 Jul 23:07:53 23:11:28 28° 265° (W) 23:15:02 437.325/437.525
VELOX 1 29 Jul 23:08:28 23:12:52 76° 258° (WSW) 23:17:17 145.980
ESTCUBE 1 29 Jul 23:09:38 23:14:09 74° 76° (ENE) 23:18:42 437.505/2401.250
PHONESAT 2.4 29 Jul 23:11:27 23:14:47 40° 355° (N) 23:18:07 2401.200-2431.200
POLYITAN 1 29 Jul 23:17:55 23:21:44 31° 97° (E) 23:25:35 437.675
ISS 29 Jul 23:19:29 23:21:19 14° 335° (NNW) 23:23:06 145.825
AUBIESAT-1 29 Jul 23:21:06 23:25:05 26° 295° (WNW) 23:28:55 437.475
BEESAT 3 29 Jul 23:22:54 23:26:23 29° 113° (ESE) 23:29:58 437.485
AIST 1 29 Jul 23:24:12 23:28:23 54° 80° (E) 23:32:33
50 SAT 29 Jul 23:35:08 23:38:27 26° 264° (W) 23:41:44 437.505
POPSAT HIP 1 29 Jul 23:35:49 23:39:58 50° 100° (E) 23:44:07 437.405
TIGRISAT 29 Jul 23:36:17 23:40:54 59° 285° (WNW) 23:45:32 435.000
ANTELSAT 29 Jul 23:36:57 23:41:34 56° 285° (WNW) 23:46:10 437.575/2403.000
SPROUT 29 Jul 23:37:37 23:41:26 33° 73° (ENE) 23:45:18 437.525
VERMONT LUNAR 29 Jul 23:40:13 23:43:24 79° 19° (NNE) 23:46:32 437.305
QB50P2 29 Jul 23:42:44 23:46:59 65° 101° (E) 23:51:13 145.880/145.840
Cosmos 2491 29 Jul 23:50:07 23:58:51 76° 82° (E) 00:07:34 435.465 / 435.565
BUGSAT 1 29 Jul 23:53:43 23:57:40 48° 100° (E) 00:01:38 437.445
AIST 2 29 Jul 23:57:41 23:58:29 11° 109° (ESE) 23:59:34 435.215
TISAT 1 29 Jul 23:59:36 00:03:24 36° 73° (ENE) 00:07:16 437.305
RS-15 30 Jul 00:06:22 00:15:52 31° 321° (NW) 00:25:28 29.354- 29.394
AISAT 30 Jul 00:06:57 00:09:49 16° 268° (W) 00:12:28 437.250
YUBILEINY 30 Jul 00:09:04 00:17:13 49° 90° (E) 00:25:31 435.215
DUCHIFAT 1 30 Jul 00:10:19 00:14:30 62° 285° (WNW) 00:18:42 145.980
QB50P1 30 Jul 00:11:37 00:15:47 57° 285° (WNW) 00:19:57 145.935-145.965
NANOSAT C BR1 30 Jul 00:13:55 00:18:04 55° 285° (WNW) 00:22:14 145.865
BEESAT 2 30 Jul 00:16:24 00:20:29 87° 299° (WNW) 00:24:38 435.950
CUBEBUG 1 30 Jul 00:29:05 00:31:58 17° 267° (W) 00:34:42 437.445
UNISAT 6 30 Jul 00:29:51 00:32:52 17° 292° (WNW) 00:35:42 437.425
PHONESAT 2.4 30 Jul 00:49:41 00:53:07 51° 12° (NNE) 00:56:31 2401.200-2431.200
POLYITAN 1 30 Jul 00:54:21 00:57:26 19° 291° (WNW) 01:00:25 437.675
BEESAT 3 30 Jul 01:01:04 01:04:20 22° 309° (NW) 01:07:34 437.485
BEESAT 30 Jul 01:01:43 01:05:52 30° 71° (ENE) 01:10:05 436.000
POPSAT HIP 1 30 Jul 01:13:33 01:15:26 12° 293° (WNW) 01:17:07 437.405
SPROUT 30 Jul 01:14:43 01:17:38 17° 267° (W) 01:20:24 437.525
VERMONT LUNAR 30 Jul 01:17:34 01:19:54 19° 213° (SSW) 01:22:10 437.305
SWISSCUBE 30 Jul 01:21:18 01:25:58 54° 74° (ENE) 01:30:40 437.505
BUGSAT 1 30 Jul 01:31:12 01:32:46 12° 293° (WNW) 01:34:06 437.445
AIST 2 30 Jul 01:32:25 01:36:36 60° 302° (WNW) 01:40:50 435.215
TISAT 1 30 Jul 01:36:48 01:39:21 15° 268° (W) 01:41:45 437.305
ITUPSAT 1 30 Jul 01:40:54 01:45:42 79° 76° (ENE) 01:50:32 437.325
Cosmos 2491 30 Jul 01:49:01 01:54:54 19° 278° (W) 02:00:18 435.465 / 435.565
O/OREOS (USA 219) 30 Jul 01:50:11 01:54:37 71° 109° (ESE) 01:59:06 437.305
ITAMSAT 1 30 Jul 01:55:15 01:57:21 13° 90° (E) 01:59:47 435.822/435.867
YUBILEINY 30 Jul 02:06:39 02:14:20 33° 288° (WNW) 02:21:53 435.215
Cosmos 2504 30 Jul 02:13:00 02:18:58 32° 87° (E) 02:25:25 435.465 / 435.565
STARS 30 Jul 02:14:00 02:16:33 16° 68° (ENE) 02:19:18 437.465
Oscar 19 30 Jul 02:16:27 02:21:39 87° 288° (WNW) 02:26:51 437.125/150
PHONESAT 2.4 30 Jul 02:27:44 02:31:04 43° 208° (SSW) 02:34:22 2401.200-2431.200
RS-15 30 Jul 02:28:18 02:33:42 14° 355° (N) 02:39:05 29.354- 29.394
KKS-1 30 Jul 02:32:57 02:37:08 44° 73° (ENE) 02:41:22 437.445
BEESAT 30 Jul 02:39:47 02:43:44 24° 266° (W) 02:47:33 436.000
Gurwin Techsat 1B 30 Jul 02:56:05 03:01:22 65° 101° (E) 03:06:38 435.225
SWISSCUBE 30 Jul 03:01:43 03:04:13 13° 270° (W) 03:06:26 437.505
JAS-2 30 Jul 03:08:19 03:15:25 38° 95° (E) 03:22:30 435.910
MOZHAYETS 4 30 Jul 03:08:53 03:10:37 12° 66° (ENE) 03:12:36
AO-7 30 Jul 03:16:42 03:21:50 18° 91° (E) 03:27:27 29.400- 29.500
ITAMSAT 1 30 Jul 03:32:15 03:37:23 64° 286° (WNW) 03:42:29 435.822/435.867
O/OREOS (USA 219) 30 Jul 03:33:33 03:34:40 11° 307° (NW) 03:35:31 437.305
HORYU 2 30 Jul 03:33:46 03:36:23 16° 92° (E) 03:39:12 437.375
JUGNU 30 Jul 03:46:26 03:47:42 11° 168° (SSE) 03:49:05 437.505
STARS 30 Jul 03:48:35 03:52:42 40° 262° (W) 03:56:49 437.465
DANDE 30 Jul 03:57:10 03:58:49 13° 97° (E) 04:00:28 436.750
Cosmos 2504 30 Jul 04:04:28 04:11:01 39° 285° (WNW) 04:17:52 435.465 / 435.565
ISS 30 Jul 04:11:15 04:14:11 30° 34° (NE) 04:17:06 145.825
KKS-1 30 Jul 04:11:37 04:14:03 14° 269° (W) 04:16:16 437.445
CUSAT 1 30 Jul 04:32:32 04:35:47 83° 102° (ESE) 04:38:32 437.405
Gurwin Techsat 1B 30 Jul 04:37:52 04:40:52 15° 295° (WNW) 04:43:36 435.225
MOZHAYETS 4 30 Jul 04:42:47 04:47:22 61° 260° (W) 04:51:59
RS-15 30 Jul 04:43:47 04:52:21 23° 30° (NNE) 05:01:34 29.354- 29.394
JAS-2 30 Jul 04:53:08 05:00:27 44° 291° (WNW) 05:07:38 435.910
GONETS M04 30 Jul 04:53:24 04:58:39 19° 82° (E) 05:04:25
CUBESAT XI-V 30 Jul 04:55:47 04:58:07 14° 67° (ENE) 05:00:41 437.345
AO-7 30 Jul 05:07:15 05:15:37 81° 289° (WNW) 05:23:54 29.400- 29.500
HORYU 2 30 Jul 05:08:59 05:13:15 41° 287° (WNW) 05:17:28 437.375
JUGNU 30 Jul 05:32:37 05:35:57 15° 177° (S) 05:39:18 437.505
SRMSAT 30 Jul 05:33:57 05:35:05 11° 168° (SSE) 05:36:21 437.500
DANDE 30 Jul 05:39:15 05:41:51 18° 281° (W) 05:44:03 436.750
ISS 30 Jul 05:47:52 05:50:31 23° 229° (SW) 05:53:07 145.825
STRAND 1 30 Jul 06:06:16 06:10:28 27° 69° (ENE) 06:14:45 437.568
Cosmos 2499 30 Jul 06:17:11 06:17:37 10° 78° (ENE) 06:18:44 435.465 / 435.565
CUTE-I 30 Jul 06:22:26 06:27:09 33° 96° (E) 06:31:55 437.470
CUBESAT XI-V 30 Jul 06:30:34 06:35:10 53° 261° (W) 06:39:45 437.345
GONETS M04 30 Jul 06:45:56 06:54:40 77° 278° (W) 07:03:23
RS-15 30 Jul 06:55:38 07:07:28 72° 57° (ENE) 07:19:43 29.354- 29.394
PRISM 30 Jul 06:57:54 07:02:05 74° 76° (ENE) 07:06:16 437.425
AO-7 30 Jul 07:02:25 07:07:19 16° 306° (NW) 07:11:45 29.400- 29.500
Cubesat XI-IV 30 Jul 07:05:20 07:10:41 87° 102° (ESE) 07:16:01 437.490
BRITE-PL 30 Jul 07:13:42 07:14:49 11° 91° (E) 07:16:16 437.365/2234.400
SRMSAT 30 Jul 07:20:08 07:23:29 15° 177° (S) 07:26:51 437.500
JUGNU 30 Jul 07:21:15 07:24:13 14° 187° (S) 07:27:06 437.505
GOMX 1 30 Jul 07:35:31 07:37:04 12° 91° (E) 07:38:57 467.674
STRAND 1 30 Jul 07:44:57 07:49:34 32° 264° (W) 07:54:07 437.568
M-CUBED/EXP-1 PRIME 30 Jul 08:01:58 08:03:34 12° 60° (ENE) 08:05:25 437.505
Cosmos 2499 30 Jul 08:02:14 08:09:28 79° 95° (E) 08:17:19 435.465 / 435.565
CUTE-I 30 Jul 08:02:39 08:07:08 28° 291° (WNW) 08:11:31 437.470
